Find Starlink 3826

NORAD ID: 52347 Int'l Des: 2022-045 Owner: SPXS Country: US Constellation: starlink operational
LEOCIRCULAR

当前视图

正在加载3D地球...

About Starlink 3826

Starlink 3826 (NORAD 52347) is a starlink constellation satellite (v1.5) launched Apr 29, 2022 by SPXS of US. It operates in LEO, CIRCULAR orbit with a mass of 297.00 kg.

即将过境

Passes for default location (London). Set your location on the main map for personalized predictions.

高度历史

Loading altitude history...

两行轨道根数

1 52347U 22045S 26262.35883060 .00000334 00000-0 21477-4 0 9990
2 52347 53.1626 35.2424 0001395 93.8005 266.3157 15.33545559245218
Epoch: Sep 19, 2026 • Age: 16 hours

当前状态

高度 465.5 km
远地点 / 近地点 N/A
速度 7.64 km/s
星下点 4.11°N, 165.14°W
发射日期 Apr 29, 2022
运行时间 4.3 years
类型 internet

技术详情

分类 Payload
质量 297.00 kg
干质量 275.00 kg
长度 0.20 m
跨度 9.00 m
形状 ? Box + pan
制造商 SPXS
平台类型 Starlink
阶段状态 In Orbit
所有者/国家 SPXS/US

Most Searched